GSAT0211 (GALILEO 14)

Last updated on Jan. 19, 2021, 6:22 a.m. UTC

1 41549U 16030A   21017.59400793 -.00000018  00000-0  00000-0 0  9991
2 41549  56.1290 276.0775 0004628 338.6710  21.3805  1.70474480 28970
UTC
Height (km)
Latitude
Longitude
Inclination
Orbital Period
UTC large
Height (km)
Speed (km/s)
/
Latitude / Longitude
Inclination (degrees)
Orbital Period (minutes)
Azimuth
Elevation
Range (km)
Doppler Factor
iOS Compass Heading
iOS Angle

Next 30 passes for location: Hong Kong

Rise time Rise Azimuth (degrees) Set time Set Azimuth (degrees) Duration Max altitude (degrees)

No matching passes for this satellites